Wind_Speed
14 11 11 7 4 6 6 7 6 2 1 5 7 8 7 11 14 14 16 17 15 13 10 6 4 10 13 13 14 16 16 17 17 17 16 15 15 13 11 12 15 15 12 14
10 16 6 2 5 5 8 7 3 5 4 5 2 7 1 5 10 13 14 16 16 16 13 10 3 14 13 14 16 17 18 17 20 16 15 15 13 13 12 12 11 8 8 12
18 12 5 5 5 8 9 5 5 7 6 2 4 10 8 8 4 7 12 13 17 18 18 18 13 15 10 13 15 16 16 17 18 18 17 20 17 17 13 13 13 11 7 9
20 12 5 6 7 6 8 3 4 5 9 3 3 5 6 5 5 5 9 14 18 20 23 25 10 12 5 7 11 13 14 15 14 17 18 19 17 14 11 12 12 12 12 10
18 10 14 11 3 4 6 4 0 1 6 8 8 7 10 4 7 9 9 4 12 23 28 27 21 12 13 14 12 12 12 10 11 14 15 16 18 15 12 11 15 16 15 14
18 6 6 7 0 4 5 6 5 4 7 11 6 7 7 5 4 7 11 9 9 13 22 21 20 15 15 11 10 9 9 9 10 13 13 14 16 14 12 12 13 13 13 14
20 16 9 7 6 5 13 11 8 6 7 1 5 6 10 6 5 5 8 11 12 13 13 13 12 10 8 6 5 6 5 5 6 7 8 8 8 9 10 14 14 15 13 12
18 19 19 9 13 10 12 11 8 4 7 5 5 5 7 6 7 9 9 12 13 13 13 12 8 3 5 5 7 5 4 4 4 3 4 7 4 6 11 14 8 9 10 12
16 15 11 5 7 11 8 10 7 10 4 6 4 4 10 8 7 9 11 14 13 12 12 9 8 12 7 6 7 9 10 6 5 4 6 6 6 9 10 8 7 9 11 10
14 13 9 7 9 4 8 2 6 6 4 9 6 3 5 7 10 9 11 14 14 11 10 11 13 12 9 9 8 8 9 8 7 4 7 8 8 8 8 7 8 9 11 11
13 8 9 11 9 12 7 10 6 5 6 7 6 3 11 6 3 11 12 14 12 12 12 13 13 11 9 8 6 6 6 6 7 6 6 7 7 7 8 8 9 10 9 11
9 7 11 8 4 2 4 2 6 8 10 3 8 4 8 6 5 8 12 14 11 10 11 12 10 8 6 6 5 4 5 6 6 6 6 7 9 10 7 4 5 9 11 12
10 7 10 11 9 6 6 5 4 6 5 6 8 5 8 10 9 7 12 11 10 9 10 9 7 7 7 6 4 6 6 6 6 7 8 9 10 9 9 9 8 8 8 10
14 8 9 5 5 9 8 8 5 7 7 2 5 2 11 8 6 9 11 11 11 10 9 9 10 9 8 8 8 7 8 8 10 11 12 13 13 14 14 14 13 13 11 11
12 8 5 4 4 2 4 7 4 7 6 8 10 7 7 4 6 9 12 13 13 12 9 9 8 7 9 9 10 10 12 14 16 18 19 17 20 18 16 18 17 20 18 16
10 4 7 4 5 9 6 5 3 2 3 8 6 3 4 9 12 13 13 12 10 9 8 8 9 9 10 12 13 15 18 20 21 22 21 21 19 19 15 13 15 19 23 22
12 8 9 8 6 6 9 5 2 0 3 6 8 9 10 11 13 12 12 10 10 7 7 7 9 11 13 14 16 17 19 18 18 18 17 18 20 22 24 21 19 18 18 19
14 13 8 6 8 10 6 2 2 4 2 3 2 9 10 11 12 12 10 8 7 6 6 7 8 11 12 14 15 16 16 16 16 15 17 18 19 20 21 22 23 22 20 20
15 10 4 6 11 4 6 5 5 6 3 4 8 10 12 13 13 9 7 7 6 5 6 8 10 12 13 15 16 17 17 16 16 19 22 24 25 27 28 28 25 25 25 23
10 6 7 5 6 6 9 10 5 3 7 12 11 14 15 13 8 9 7 4 4 6 9 10 12 12 12 14 15 16 16 17 18 23 25 26 27 28 30 29 29 29 27 26
9 6 8 8 5 5 6 10 9 6 5 12 13 14 12 6 6 10 6 4 5 7 9 10 10 10 12 13 15 15 17 18 23 25 27 25 23 25 24 29 30 30 31 30
8 7 5 2 4 7 12 11 5 4 7 12 13 11 8 9 8 6 4 3 5 7 8 8 9 10 11 14 15 16 17 21 25 24 23 23 24 25 25 27 29 28 25 26
4 3 1 4 4 6 16 5 6 6 12 12 13 11 11 9 6 3 2 3 5 6 6 7 8 9 11 12 13 14 18 24 24 21 23 23 23 25 26 25 26 26 24 20
3 2 2 6 5 8 10 6 8 13 14 14 13 12 9 8 5 3 1 3 3 5 5 6 8 9 10 12 12 14 21 24 21 22 23 23 24 26 26 24 23 24 24 21
3 8 6 4 7 8 8 10 14 16 17 16 13 10 9 7 4 3 3 5 5 6 7 8 9 11 12 12 12 14 20 23 22 23 23 22 23 23 25 24 24 22 18 16
9 5 5 1 16 2 18 17 17 18 16 14 14 11 8 6 6 7 8 7 5 6 8 9 10 11 12 12 12 14 16 20 24 25 24 24 24 23 24 25 25 17 17 13
Wind_Direction
208 232 222 50 20 345 304 289 294 329 228 235 239 261 130 179 203 199 190 176 175 172 163 161 220 255 246 241 245 244 246 234 238 239 229 225 228 235 253 270 268 267 270 254
191 228 90 231 283 279 271 283 100 100 152 227 183 259 117 167 205 220 205 179 175 158 141 164 313 297 237 238 241 244 249 249 253 238 239 235 245 252 254 260 285 276 265 240
212 197 128 246 243 265 217 267 117 94 151 183 257 240 188 134 176 207 200 190 174 168 153 157 175 222 254 236 247 249 248 252 257 251 254 260 258 263 260 266 264 276 274 256
218 136 200 226 263 270 225 125 121 132 250 22 253 311 155 130 122 135 162 182 189 175 171 184 200 206 246 244 248 251 257 254 262 258 248 253 259 260 261 256 251 257 265 262
202 197 218 235 261 315 60 125 99 267 275 277 163 265 121 152 123 102 83 119 205 189 186 198 216 231 259 273 260 252 256 252 269 265 262 253 261 264 276 261 270 263 254 256
205 161 220 243 197 298 162 155 189 218 271 254 85 278 122 68 69 101 90 90 125 175 183 208 225 242 259 259 241 236 252 255 279 281 276 271 268 270 270 276 269 267 256 245
211 185 196 227 240 193 223 218 231 223 206 37 95 250 56 101 79 71 87 112 123 140 162 189 211 223 224 208 202 216 242 287 303 294 302 292 276 267 294 298 279 257 250 255
196 201 221 202 244 251 214 282 271 240 250 202 138 236 99 94 95 105 102 125 130 138 137 144 146 207 215 184 143 126 97 88 73 26 14 349 311 253 297 292 272 245 259 260
197 213 187 192 221 258 168 230 348 291 218 282 141 143 176 148 124 114 111 127 134 128 121 121 111 109 128 136 121 114 106 105 75 57 15 1 328 285 300 273 271 279 265 269
188 180 183 152 184 199 276 51 209 205 192 246 153 273 303 152 148 139 136 134 138 136 133 120 108 105 109 117 106 100 93 90 85 54 2 349 344 331 322 311 301 285 276 274
169 235 153 183 206 194 178 210 230 315 305 301 252 170 69 87 129 153 144 141 137 136 132 123 107 101 105 106 94 83 80 80 67 43 13 8 9 359 348 353 359 348 324 297
210 223 170 128 108 237 306 316 212 236 170 226 323 355 59 67 145 136 142 151 136 126 127 125 118 103 92 86 82 73 67 61 54 50 13 338 341 335 322 304 342 353 340 327
179 214 137 147 159 167 189 159 306 293 314 255 296 64 68 88 101 143 144 146 136 125 127 125 107 87 85 60 52 39 24 10 4 345 331 312 302 300 295 287 295 311 315 323
201 194 236 182 133 145 161 180 220 289 295 306 259 107 83 74 103 110 118 133 121 110 109 99 82 73 60 47 32 20 6 341 345 324 317 308 303 294 288 281 279 285 287 285
216 182 234 351 62 114 129 170 196 266 343 289 5 335 61 77 110 115 120 125 120 107 94 83 72 54 37 21 5 351 342 332 323 318 317 313 307 305 289 270 276 272 270 271
216 126 179 144 165 165 159 155 183 232 276 277 296 238 85 116 117 116 111 114 105 93 80 48 41 22 7 358 348 344 335 326 321 316 313 308 307 305 308 301 289 278 271 269
188 160 195 151 149 149 200 166 202 262 258 312 288 82 142 139 127 126 125 124 115 94 63 30 11 359 350 342 341 339 335 331 330 328 324 321 319 312 304 303 303 299 291 284
191 186 205 132 168 218 80 117 231 275 311 257 125 141 146 138 129 122 121 118 96 67 36 10 351 345 342 340 339 338 336 333 332 328 328 329 324 318 316 312 308 303 295 287
169 174 146 172 210 88 165 179 177 215 135 196 159 152 149 149 138 120 107 92 76 44 17 357 347 345 343 341 338 333 333 332 334 333 330 329 325 320 316 310 305 303 303 297
153 201 190 204 200 233 78 134 139 151 251 167 164 168 168 174 223 109 125 85 38 16 0 351 344 343 341 343 345 347 346 346 341 332 327 322 320 317 313 309 304 299 285 288
153 195 207 181 253 104 117 140 157 234 72 158 169 170 172 201 47 118 109 62 24 8 354 353 350 348 348 347 350 346 340 337 332 328 328 328 324 321 319 315 311 307 297 278
181 197 196 216 252 244 151 150 219 70 138 152 158 162 153 132 123 111 81 34 7 359 356 3 358 352 348 347 345 343 339 332 331 330 332 334 335 335 331 327 323 317 307 302
196 346 19 333 38 126 161 77 127 140 144 149 149 148 146 139 129 127 76 20 5 4 23 7 359 353 348 344 343 341 335 335 334 337 342 339 338 338 338 335 332 324 317 305
142 139 178 179 124 148 164 132 151 143 141 141 142 138 139 135 132 120 66 20 34 46 26 15 7 358 352 349 347 343 339 346 339 334 336 340 339 337 340 343 343 336 331 316
42 164 161 99 132 133 165 163 147 138 136 134 129 128 124 126 121 126 106 95 84 59 30 14 6 358 352 347 345 338 355 355 354 346 342 340 338 338 343 346 346 350 347 329
187 150 207 50 157 203 164 161 153 144 141 138 131 120 110 116 126 123 115 103 76 44 24 14 8 0 354 350 347 342 355 2 6 3 2 356 349 340 343 343 342 354 355 352
Height
1499 1498 1496 1490 1495 1495 1496 1496 1499 1494 1493 1498 1497 1495 1498 1508 1510 1511 1515 1522 1527 1532 1537 1540 1541 1543 1543 1544 1545 1545 1545 1548 1548 1548 1550 1551 1552 1552 1551 1549 1548 1547 1548 1548
1498 1498 1490 1497 1496 1496 1493 1496 1496 1497 1495 1496 1496 1495 1493 1502 1506 1508 1511 1517 1523 1529 1536 1536 1534 1535 1539 1539 1539 1541 1541 1542 1543 1546 1547 1549 1550 1550 1550 1550 1548 1547 1546 1545
1494 1487 1495 1496 1493 1496 1489 1490 1494 1496 1496 1493 1495 1494 1494 1503 1505 1505 1508 1514 1518 1524 1530 1529 1523 1528 1532 1534 1536 1537 1538 1539 1540 1543 1543 1543 1545 1545 1546 1546 1546 1545 1543 1543
1488 1488 1494 1494 1494 1492 1489 1488 1490 1495 1496 1504 1494 1508 1490 1497 1498 1503 1505 1511 1514 1519 1525 1523 1523 1527 1529 1530 1534 1535 1535 1536 1537 1539 1540 1541 1541 1542 1543 1542 1543 1542 1541 1540
1488 1489 1495 1496 1490 1491 1492 1489 1493 1495 1495 1496 1497 1502 1491 1491 1497 1500 1507 1510 1509 1513 1520 1522 1523 1527 1527 1528 1531 1531 1532 1533 1535 1535 1536 1537 1537 1539 1539 1541 1538 1537 1537 1537
1479 1489 1491 1487 1491 1493 1491 1491 1493 1493 1493 1507 1498 1501 1487 1491 1498 1500 1506 1510 1509 1511 1517 1522 1524 1526 1525 1528 1529 1530 1530 1531 1532 1531 1532 1533 1533 1534 1536 1537 1536 1535 1534 1533
1480 1486 1487 1492 1492 1491 1491 1487 1507 1513 1508 1507 1491 1502 1491 1491 1497 1502 1506 1510 1512 1514 1517 1521 1523 1525 1526 1527 1529 1530 1529 1529 1530 1529 1529 1530 1530 1531 1531 1530 1531 1531 1530 1531
1491 1503 1484 1483 1488 1485 1484 1483 1498 1528 1517 1502 1496 1503 1493 1491 1499 1504 1508 1510 1513 1515 1517 1520 1523 1526 1527 1528 1526 1527 1529 1528 1528 1528 1527 1526 1528 1529 1529 1527 1526 1527 1528 1528
1484 1489 1477 1483 1483 1483 1485 1496 1480 1492 1491 1505 1489 1490 1485 1492 1497 1503 1508 1511 1514 1516 1518 1521 1520 1521 1526 1527 1529 1528 1527 1528 1527 1527 1526 1525 1525 1526 1526 1524 1523 1523 1523 1523
1471 1488 1476 1485 1486 1486 1484 1480 1494 1490 1517 1524 1496 1501 1492 1493 1496 1502 1506 1510 1514 1517 1520 1522 1522 1522 1526 1528 1529 1528 1526 1526 1525 1525 1525 1524 1523 1523 1523 1522 1521 1520 1520 1519
1470 1473 1486 1480 1480 1477 1488 1487 1485 1482 1492 1505 1509 1493 1482 1494 1494 1498 1506 1512 1515 1518 1520 1522 1523 1525 1527 1529 1529 1529 1527 1525 1524 1524 1524 1523 1522 1521 1521 1520 1519 1518 1517 1516
1471 1464 1479 1476 1479 1478 1474 1474 1477 1490 1503 1490 1495 1496 1495 1497 1498 1501 1506 1513 1516 1519 1520 1523 1526 1527 1528 1529 1529 1529 1528 1525 1524 1523 1523 1524 1522 1521 1521 1520 1519 1518 1516 1514
1471 1469 1488 1491 1485 1481 1476 1480 1475 1475 1476 1491 1503 1497 1497 1499 1501 1504 1509 1515 1520 1522 1524 1525 1529 1532 1530 1530 1529 1527 1526 1524 1522 1521 1522 1522 1521 1520 1519 1518 1516 1514 1513 1512
1469 1460 1467 1481 1475 1465 1484 1483 1479 1478 1487 1485 1488 1488 1498 1504 1506 1510 1513 1517 1520 1523 1525 1528 1529 1528 1529 1528 1527 1525 1523 1520 1519 1518 1518 1517 1517 1516 1515 1514 1512 1511 1509 1507
1463 1471 1474 1473 1472 1473 1476 1484 1486 1488 1486 1496 1488 1494 1503 1509 1510 1512 1517 1520 1523 1525 1527 1530 1528 1529 1528 1526 1526 1522 1520 1517 1516 1515 1514 1513 1512 1510 1508 1506 1505 1503 1503 1503
1463 1475 1476 1484 1478 1478 1485 1486 1488 1491 1492 1492 1492 1495 1510 1514 1517 1518 1521 1524 1527 1527 1527 1528 1527 1528 1526 1524 1523 1519 1516 1514 1513 1510 1509 1507 1506 1504 1502 1500 1499 1497 1495 1495
1463 1471 1480 1486 1481 1482 1495 1488 1491 1493 1494 1495 1498 1499 1510 1514 1518 1523 1525 1526 1528 1529 1528 1528 1527 1526 1524 1523 1520 1516 1514 1512 1509 1506 1505 1503 1498 1495 1493 1491 1490 1488 1488 1487
1460 1468 1471 1484 1489 1510 1492 1491 1492 1494 1496 1496 1499 1505 1509 1515 1520 1524 1526 1527 1528 1528 1528 1528 1527 1526 1524 1521 1518 1515 1513 1511 1508 1505 1501 1497 1493 1490 1488 1485 1482 1481 1480 1478
1458 1464 1481 1490 1488 1489 1491 1492 1493 1494 1494 1497 1498 1506 1512 1516 1519 1523 1526 1527 1527 1528 1527 1526 1524 1522 1520 1518 1516 1512 1509 1506 1502 1499 1494 1491 1488 1484 1480 1477 1474 1472 1469 1469
1457 1457 1467 1478 1488 1499 1481 1484 1491 1493 1495 1495 1500 1506 1511 1515 1510 1517 1524 1526 1527 1526 1525 1523 1522 1521 1519 1516 1513 1510 1506 1503 1500 1495 1492 1489 1484 1479 1475 1471 1468 1464 1462 1460
1465 1466 1472 1475 1480 1480 1482 1488 1492 1502 1501 1497 1501 1506 1511 1512 1517 1522 1524 1526 1526 1525 1524 1522 1521 1520 1517 1514 1511 1509 1505 1501 1496 1492 1487 1484 1481 1477 1472 1466 1460 1456 1453 1451
1467 1472 1474 1476 1484 1492 1485 1490 1492 1496 1496 1499 1503 1508 1512 1517 1520 1522 1524 1525 1525 1524 1523 1522 1521 1519 1517 1513 1510 1506 1504 1499 1494 1490 1485 1481 1476 1471 1466 1461 1455 1451 1447 1443
1471 1467 1467 1476 1479 1485 1486 1489 1493 1496 1498 1502 1507 1511 1514 1517 1520 1523 1524 1524 1524 1523 1521 1521 1520 1519 1517 1514 1510 1507 1503 1497 1491 1487 1482 1478 1473 1469 1464 1458 1452 1446 1442 1439
1472 1474 1468 1479 1486 1487 1490 1493 1495 1497 1500 1505 1509 1512 1515 1518 1520 1522 1523 1523 1523 1523 1523 1522 1521 1519 1517 1514 1511 1507 1501 1495 1489 1485 1480 1475 1470 1466 1461 1455 1448 1443 1439 1435
1467 1474 1474 1481 1487 1490 1492 1494 1497 1499 1503 1506 1510 1513 1515 1517 1519 1521 1522 1523 1523 1523 1522 1521 1519 1518 1515 1512 1510 1506 1500 1494 1489 1484 1479 1474 1468 1463 1457 1452 1447 1441 1437 1433
1467 1466 1469 1463 1476 1480 1487 1494 1498 1501 1505 1508 1510 1512 1514 1517 1519 1521 1522 1523 1523 1523 1522 1521 1519 1517 1514 1512 1509 1505 1499 1495 1489 1484 1478 1473 1467 1461 1455 1449 1443 1440 1435 1431